STARLINK-5893, 55952

Orbit data source: Space-Track

STARLINK-5893, 55952 is a payload satellite owned by SpaceX/Seattle (US) in LEO that was launched on Fri, 17 Mar 2023 UTC via an FALCON 9 launch vehicle from the Air Force Western Test Range (AFWTR). Payload-class satellites include a variety of spacecraft equipped with specific instruments for various scientific and technological missions. These include communications satellites like Starlink; space stations such as the ISS; scientific satellites like the Hubble; Earth observation satellites from companies like Planet Labs, Umbra, and HawkEye 360; GPS; miniature CubeSats for education and research; and military/defense satellites.

Loading next visibility...
Identifier
55952, 2023-037AQ
Orbit
LEO
Country
Flag of USUS
Related business
Manufacturer
SpaceX/Seattle
Mission
Operational Commercial Communications
Bus & Motor
STARLINK, Unknown motor
Mass
305 kg wet, ~290 kg dry
Launch date (UTC)
2023-03-17 (3 years ago)
Launch vehicle
FALCON 9
Launch site
Air Force Western Test Range (AFWTR)
Object type
Payload
Rocket body
Debris
Shape & HBR
Box + 1 Pan, 10.1 m
Radar Cross Section
11.087 m², Large (>1 m²)

Expand to show TLE details & history
Last TLE update: 3 days ago

TLE from 3 days ago
0 STARLINK-5893
1 55952U 23037AQ  26170.92121232  .00000182  00000-0  23031-4 0  9993
2 55952  70.0001   6.8107 0002941 268.4394  91.6428 14.98332935179789
Epoch: 2026-06-19T22:06Z
TLE epoch observation values (Epoch: 2026-06-19T22:06:32.744Z)
Latitude
-0.00004°
Longitude
127.031°
Altitude
574.53 km
Speed
7.574 km/s
True Right ascension
00h 27m 14s
True Declination
0° 00' 00"
Sunlit
Object was in daylight at epoch
Visualization orbit readout
Latitude
Unknown
Longitude
Unknown
Altitude
Unknown
Speed
Unknown
Apparent Right ascension
Unknown
Apparent Declination
Unknown
Sunlit
N/A
Visualization observer readout
Local Sidereal Time
21:38:42
Azimuth
Unknown
Elevation
Unknown
Doppler factor
Unknown
Orbital elements
Apogee altitude
572.038 km
Perigee altitude
567.952 km
Semi-major axis
6,948.132 km
Eccentricity
0.00029
Inclination
70.0001°
RAAN
6.8107°
Arg. of periapsis
268.4394°
True anomaly
91.67649°
Mean anomaly
91.6428°
Eccentric anomaly
91.65964°
Mean motion
3.7475 °/min
Orbital period
96.06 mins
BSTAR
0.000023031
Loading maneuver chart data...
Computing Atmospheric mass density...
Loading historical data...
Loading historical data...
Loading historical data...
Loading historical data...
Loading historical data...
Loading historical data...
Loading historical data...

Documentation

Showing up to 5 results
|